www.pogodaiklimat.ru

Погода и климат >> Архив погоды >> Португалия >> Флошир


ПОГОДА на Флошише

  • Прогноз погоды на Флошише
  • Монитор погоды на Флошише

АРХИВ ПОГОДЫ на Флошише

Время (UTC), дата Ветер
(напр.,м/с)
 
Видим.   Явления Облачность Т
(С)
Тd
(С)
f
(%)
Тe
(С)
Тes
(С)
Комфортность P
(гПа)
Po
(гПа)
Тmin
(С)
Tmax
(С)
R
(мм)
R24
(мм)
S
(см)
21 16.09 ЮВ 8-13
{14}
н/о н/о +22.4 +22.1 98 +30 +30 очень
душно
1010.9 1007.4
00 17.09 ЮВ 6-11
{11}
н/о н/о +22.6 +22.6 100 +31 +31 очень
душно
1010.0 1006.5 0.2
03 17.09 ЮВ 3
{10}
н/о н/о +21.8 +21.8 100 +28 +28 душно 1009.0 1005.6
06 17.09 Ю 3
{5}
н/о н/о +22.1 +22.1 100 +29 +29 очень
душно
1008.1 1004.6 +19.9 22
09 17.09 Ю 3-5
{9}
н/о н/о +22.4 +22.4 100 +30 +30 очень
душно
1008.0 1004.5
12 17.09 Ю 6-11
{12}
н/о н/о +23.7 +19.8 79 +29 +29 душно 1008.2 1004.8 3
15 17.09 Ю 3-8
{12}
н/о {ливн. осадки} н/о +25.8 +19.9 70 +32 +32 очень
душно
1007.8 1004.4
18 17.09 З 3-9
{10}
20 км в посл. час ливневой дождь 8/5 480 м
[Cu med, cong Ci sp]
+23.7 +19.4 77 +29 +30 душно 1007.7 1004.3 +26.1 7
21 17.09 З 5-11
{13}
н/о н/о +23.5 +18.2 72 +28 +28 душно 1009.2 1005.7
00 18.09 З 4-9
{10}
н/о н/о +23.0 +18.6 76 +29 +29 очень
душно
1009.5 1006.0
03 18.09 З 5-12
{13}
н/о н/о +22.3 +19.6 85 +28 +28 душно 1009.5 1006.0
06 18.09 З 4-8
{10}
н/о н/о +22.1 +19.1 83 +28 +28 душно 1009.9 1006.4 +21.8 2
09 18.09 З 5-8
{9}
28 км {ливн. осадки} 6/4 480 м
[Cu Sc Ci sp]
+22.4 +18.0 76 +27 +28 душно 1011.7 1008.2
12 18.09 З 4-7
{14}
25 км слаб. ливневой дождь {морось} 9/9 480 м
[Cu Sc Ci sp]
+23.2 +18.8 76 +29 +30 душно 1013.2 1009.7 1
15 18.09 С 3-6
{8}
30 км {ливн. осадки} 8/3 540 м
[Cu med, cong Ci sp]
+25.4 +18.6 66 +30 +36 душно 1013.1 1009.7
18 18.09 С 2
{7}
н/о {ливн. осадки} н/о +24.1 +18.2 70 +29 +29 душно 1013.4 1009.9 +26.3 1
21 18.09 ЮЗ 1
{5}
н/о н/о +22.5 +18.4 78 +28 +28 душно 1014.6 1011.1
00 19.09 Ю 3-6
{6}
н/о н/о +22.5 +17.6 74 +28 +28 душно 1014.2 1010.8
03 19.09 С 2-6
{8}
н/о н/о +22.8 +17.7 73 +28 +28 душно 1013.4 1010.0
06 19.09 Ю 3-7
{8}
н/о н/о +23.7 +19.8 79 +29 +29 душно 1012.9 1009.4 +21.6
09 19.09 ЮЗ 6-13
{13}
25 км в посл. час ливневой дождь 10/4 300 м
[Cu med, cong Ac und Cs]
+24.6 +20.2 77 +30 +30 очень
душно
1013.2 1009.8
12 19.09 Ю 7-15
{15}
22 км {ливн. осадки, морось} 10/8 240 м
[Cu Sc Ac und Cs]
+25.1 +21.4 80 +32 +32 очень
душно
1013.2 1009.8 0.3
15 19.09 З 6-12
{16}
20 км 10/3 450 м
[Cu med, cong Ac lent Cs]
+24.8 +20.1 75 +30 +32 душно 1012.4 1008.9
18 19.09 СЗ 4-7
{10}
20 км {морось} 9/3 450 м
[Cu med, cong Ac lent Cs]
+24.7 +18.8 70 +30 +30 очень
душно
1013.1 1009.6 +25.9 0.3
21 19.09 С 3-6
{9}
н/о н/о +23.8 +18.6 73 +28 +28 душно 1015.3 1011.8
00 20.09 СЗ 3-6
{8}
н/о н/о +22.8 +18.0 74 +28 +28 душно 1014.6 1011.1
03 20.09 С 1
{6}
н/о н/о +20.7 +20.7 100 +27 +27 душно 1013.6 1010.0
06 20.09 СЗ 4-9
{10}
н/о н/о +21.3 +16.5 74 +25 +25 комфорт 1013.4 1009.9 +20.0 2
09 20.09 СЗ 7-15
{15}
40 км {ливн. осадки} 3/3 700 м
[Cu med, cong]
+21.0 +15.0 69 +24 +24 комфорт 1015.5 1012.0
12 20.09 СЗ 6-12
{15}
30 км осадки на расстоянии {ливн. осадки} 6/6 840 м
[Cu med, cong]
+21.4 +14.9 66 +24 +26 комфорт 1017.3 1013.8 0.0
15 20.09 СЗ 6-10
{15}
40 км 1/1 900 м
[Cu med, cong]
+22.8 +11.3 48 +25 +29 комфорт 1017.6 1014.1
18 20.09 СЗ 6-12
{12}
40 км 5/5 900 м
[Cu med, cong]
+21.0 +13.6 63 +24 +24 комфорт 1017.6 1014.1 +23.1
21 20.09 СЗ 5-9
{10}
н/о н/о +19.8 +11.9 60 +21 +21 комфорт 1018.8 1015.3
00 21.09 З 4-6
{10}
н/о н/о +19.9 +12.9 64 +22 +22 комфорт 1019.0 1015.5
03 21.09 С 2
{10}
н/о н/о +19.9 +12.5 62 +22 +22 комфорт 1018.1 1014.5
06 21.09 З 3-5
{9}
н/о н/о +20.3 +12.8 62 +23 +23 комфорт 1017.5 1014.0 +19.0
09 21.09 З 3-6
{6}
55 км 4/4 750 м
[Sc diur, vesp Ci sp]
+20.3 +14.6 70 +23 +23 комфорт 1018.1 1014.5
12 21.09 С 3-7
{7}
35 км 4/4 900 м
[Cu med, cong]
+23.2 +15.5 62 +27 +32 душно 1018.1 1014.6
15 21.09 С 3-6
{6}
35 км 3/1 840 м
[Cu hum Ci]
+24.4 +15.9 59 +28 +36 душно 1016.9 1013.5
18 21.09 С 2
{5}
20 км осадки на расстоянии 9/9 570 м
[Cu Sc Ci]
+21.9 +17.8 78 +27 +27 душно 1016.1 1012.6 +24.9
21 21.09 ЮВ 2 н/о н/о +22.2 +19.5 85 +28 +28 душно 1015.2 1011.7
00 22.09 ЮВ 4-7
{7}
н/о н/о +23.5 +20.1 81 +29 +29 душно 1014.2 1010.7
03 22.09 ЮЗ 6-13
{13}
н/о н/о +24.0 +20.3 80 +30 +30 очень
душно
1011.9 1008.4
06 22.09 Ю 5-16
{16}
н/о н/о +24.4 +20.9 81 +31 +31 очень
душно
1010.5 1007.1 +20.8
09 22.09 ЮЗ 8-17
{19}
12 км в посл. час ливневой дождь 10/10 330 м
[Cu Sc]
+24.5 +21.6 84 +31 +31 очень
душно
1009.3 1005.9
12 22.09 З 6-13
{16}
15 км в посл. час ливневой дождь 9/4 240 м
[Cb cap Ac cuf Ci ing]
+24.8 +20.7 78 +31 +32 очень
душно
1009.4 1005.9 1
15 22.09 З 8-16
{16}
22 км {морось} 8/1 360 м
[Cu med, cong Ac und Ci ing]
+25.8 +18.5 64 +31 +32 очень
душно
1008.0 1004.6
18 22.09 З 6-12
{16}
15 км {ливн. осадки, морось} 9/4 400 м
[Cu Sc Ac lent Cs]
+24.3 +19.5 75 +30 +30 очень
душно
1008.4 1004.9 +26.0 2
21 22.09 ЮЗ 4-9
{13}
н/о н/о +23.4 +18.7 75 +30 +30 очень
душно
1009.3 1005.8
00 23.09 З 4-7
{7}
н/о н/о +23.1 +17.7 72 +29 +29 очень
душно
1010.7 1007.2 0.5
03 23.09 З 4-7
{9}
н/о н/о +23.0 +17.6 72 +28 +28 душно 1011.0 1007.6
06 23.09 СЗ 3-10
{10}
н/о н/о +21.7 +17.5 77 +26 +26 душно 1012.7 1009.2 +20.6 2
09 23.09 С 1
{8}
28 км 6/6 750 м
[Sc diur, vesp Ci fib]
+20.8 +15.9 74 +25 +26 комфорт 1015.6 1012.1
12 23.09 С 5-8
{9}
30 км 6/3 750 м
[Cu hum Ci fib]
+23.1 +14.0 57 +27 +30 душно 1017.4 1013.9
15 23.09 СЗ 3-6
{8}
35 км 6/6 840 м
[Cu hum Cs]
+23.4 +13.9 55 +27 +31 душно 1018.2 1014.7
18 23.09 СЗ 3-6
{6}
30 км 4/3 900 м
[Cu med, cong Ci fib]
+22.3 +15.2 64 +26 +28 жарко 1019.5 1015.9 +23.9

 

Местоположение метеостанции Флошир (Португалия): широта 39.45 долгота -31.13 высота над уровнем моря 29 м.

В архиве по умолчанию представлена погода на Флошише за последнюю неделю. Архивные данные за месяц целиком и за предыдущие месяцы, начиная с января 2011 года, Вы можете получить, выбрав интересующий диапазон дат из раскрывающегося списка и нажав кнопку "Ввод!".


*Определитесь, кто Вы:
робот инопланетянин человек

Внимание! Время в таблицах - всемирное. Для получения местного времени необходимо прибавить поправку, которая равна 0 ч.

Смотрите также архив погоды в соседних городах и на ближайших метеорологических станциях:

Погода в Каштелу-Бранку (Португалия) (233 км)
Погода в Орте (Португалия) (240 км)
Погода в Пико (Португалия) (253 км)
Погода на Острове Грасьоса (Португалия) (270 км)
Погода в Сан-Жоржи (Португалия) (270 км)
Погода в Ангра-ду-Эроижму (Португалия) (349 км)
Погода в Аэропорту Лажеша (Португалия) (356 км)
Погода в Понта-Делгаде (Португалия) (509 км)
Погода в Санта-Марии (Португалия) (590 км)
Погода в Фуншале (Португалия) (1485 км)

Пояснения к столбцам:

Ветер - указаны скорость ветра в м/с - средняя за 10 мин, порывы в срок и между сроками (в фигурных скобках) и направление, откуда дует ветер: С - северный, СВ - северо-восточный, В - восточный, ЮВ - юго-восточный, Ю - южный, ЮЗ - юго-западный, З - западный, СЗ - северо-западный.
Видимость - горизонтальная дальность видимости в метрах или километрах. При видимости от 1 до 10 км при отсутствии осадков обычно наблюдается дымка, при ухудшении видимости до 1 км и менее - туман. В сухую погоду видимость может ухудшаться дымом, пылью или мглою.
Явления - указаны атмосферные явления, наблюдавшиеся в срок или в последний час перед сроком; фигурными скобками обозначены явления, наблюдавшиеся между сроками (за 1-3 часа до срока); квадратными скобками обозначены град или гололедные отложения с указанием их диаметра в мм.
Облачность - указаны через наклонную черту общая и нижняя облачность в баллах и высота нижней границы облаков в метрах; квадратными скобками обозначены формы облаков: Ci - перистые, Cs - перисто-слоистые, Cc - перисто-кучевые, Ac - высококучевые, As - высокослоистые, Sc - слоисто-кучевые, Ns - слоисто-дождевые, Cu - кучевые, Cb - кучево-дождевые. Подробнее классификацию облаков см. в Атласе облаков (PDF).
T - Температура воздуха - температура, измеренная на высоте 2 м над землей.
Td - Температура точки росы - температура, при понижении до которой содержащийся в воздухе водяной пар достигнет насыщения.
f - Относительная влажность воздуха - влажноcть воздуха, измеренная на высоте 2 м над землей.
Te - Эффективная температура - температура, которую ощущает одетый по сезону человек в тени. Характеристика душности погоды. При расчете учитывается влияние влажности воздуха и скорости ветра на теплоощущения человека.
Tes - Эффективная температура на солнце - температура, которую ощущает человек, с поправкой на солнечный нагрев. Характеристика знойности погоды. Зависит от высоты солнца над горизонтом, облачности и скорости ветра. Ночью, в пасмурную погоду, а также при ветре 12 м/с и более поправка равна нулю.
P - Атмосферное давление - приведенное к уровню моря атмосферное давление.
Po - Атмосферное давление - измеренное на уровне метеостанции атмосферное давление.
Tmin - Минимальная температура - минимум температуры воздуха на высоте 2 м над землей.
Tmax - Максимальная температура - максимум температуры воздуха на высоте 2 м над землей.
R - Количество осадков - Количество выпавших осадков за период времени, мм. При наведении курсора мыши на число - период времени, за который выпало указанное количество осадков.
R24 - Количество осадков - Количество выпавших осадков за 24 часа, мм.
S - Снежный покров - Высота снежного покрова, см. При наведении курсора мыши на число - состояние снежного покрова и степень покрытия местности в баллах.